Back to catalog

STARLINK-35127

AliveCommunicationsVLEO
NORAD 65639·PAYLOAD·🇺🇸 United States

Launched Sep 18, 2025 from Cape Canaveral Space Force Station

Loading…

Next Passes (next 24 hours)

TLE

FreshSource: CelesTrak SupGP

Epoch: Sep 14, 2026, 15:17 UTC

1 65639C 25210T   26257.63729167  .00055912  00000+0  16520-2 0  2576
2 65639  53.1565 145.0396 0001229  90.3635 205.2013 15.34360955    19

Track STARLINK-35127 in real time with AllMySat

Download on the App Store